Regional Weather Roundup
Issued by NWS Midland/Odessa, TX

Skip options and go directly to product.
Home | Oldest Version | Previous Version | Current Version | All | Text Only | Save Text | Print | Product List | Glossary On

Skip product version selection by date and time.   
790
ASUS44 KMAF 010110
RWRMAF
MIDLAND AREA WEATHER ROUNDUP
NATIONAL WEATHER SERVICE MIDLAND TX
800 PM CDT TUE MAY 31 2016

...IN SOUTHWEST TEXAS AND SOUTHEAST NEW MEXICO...

CITY           SKY/WX    TMP DP  RH WIND       PRES   REMARKS
ALPINE         PTCLDY    69  54  60 S13       29.99R
ANDREWS        MOCLDY    80  52  38 E10       29.87R
ARTESIA        MOSUNNY   73  52  46 CALM      29.89R
BIG SPRING     CLOUDY    73  62  68 E17G24    29.90R
CARLSBAD       PTSUNNY   72  59  63 W8        29.83F
DRYDEN           N/A     77  62  59 W8        29.80F
FORT STOCKTON  NOT AVBL
GUAD PASS      NOT AVBL
HOBBS          LGT RAIN  66  59  77 NE13      29.94R
MARFA          CLEAR     68  56  65 SE14      29.96R
MIDLAND AIRPK  MOCLDY    79  63  57 E15G21    29.85F
MIDLAND INTL   LGT RAIN  75  65  70 E13       29.84F
ODESSA         CLOUDY    77  59  53 E16G22    29.85F
PECOS          CLOUDY    89  47  23 NE7       29.76F
PRESIDIO       FAIR      75  54  47 E12G20    29.84S
SEMINOLE       CLOUDY    74  56  53 E22G28    29.90R
SNYDER           N/A     71  64  81 E7        29.88S
WINK           CLOUDY    86  45  23 E9        29.78F
$$
...OTHER STATIONS IN TEXAS...

CITY           SKY/WX    TMP DP  RH WIND       PRES   REMARKS
ABILENE        CLOUDY    67  64  90 S7        29.87R
AMARILLO       CLOUDY    71  54  54 NE20      29.97R
AUSTIN         CLOUDY    72  70  93 CALM      29.84R
BROWNSVILLE    PTCLDY    82  74  76 SE10      29.77F
CORPUS CHRISTI TSTM      82  73  74 E14       29.84R
DALLAS FTW     LGT RAIN  70  67  90 E12       29.87F
DEL RIO        MOCLDY    79  68  69 NE9       29.74F
EL PASO        CLOUDY    79  40  24 SW9       29.87R
HOUSTON INT    CLOUDY    79  71  76 SE12      29.88R
LUBBOCK        MOCLDY    75  57  53 E15       29.90R
SAN ANGELO     CLOUDY    68  65  90 NE10      29.88F
SAN ANTONIO    CLOUDY    74  67  78 E3        29.84R
WACO           MOCLDY    70  67  90 N7        29.86R
WICHITA FALLS  NOT AVBL
$$
...OTHER LOCATIONS IN NEW MEXICO...

CITY           SKY/WX    TMP DP  RH WIND       PRES   REMARKS
ALAMAGORDO     MOSUNNY   73  45  35 N31G37    29.92R
ALBUQUERQUE    CLOUDY    67  39  35 E26G41    30.00R
CANNON AFB     PTSUNNY   74  53  47 SE17      29.94R
CLOVIS         PTSUNNY   73  50  43 E15G23    29.95R
HOLLOMAN AFB   MOSUNNY   73  43  33 N26G33    29.89R
ROSWELL        MOSUNNY   76  43  30 SW9       29.90R
RUIDOSO          N/A     59  41  51 N14G25    30.14R
SANTA FE       CLOUDY    61  41  47 S21G28    30.08R
TRUTH OR CONSE CLOUDY    80  30  16 W9        29.90R
TUCUMCARI      TSTM      59  53  80 NW31G39   29.99R
$$

USA.gov is the U.S. government's official web portal to all federal, state and local government web resources and services.